ONEWEB-0132, 47278

Orbit data source: Space-Track

ONEWEB-0132, 47278 is a payload satellite owned by One Web (UK) in LEO that was launched on Fri, 18 Dec 2020 UTC via a SOYUZ-2-1B launch vehicle from the Vostochny Cosmodrome (VOSTO). Payload-class satellites include a variety of spacecraft equipped with specific instruments for various scientific and technological missions. These include communications satellites like Starlink; space stations such as the ISS; scientific satellites like the Hubble; Earth observation satellites from companies like Planet Labs, Umbra, and HawkEye 360; GPS; miniature CubeSats for education and research; and military/defense satellites.

Loading next visibility...
Identifier
47278, 2020-100W
Orbit
LEO
Country
Flag of UKUK
Related business
Manufacturer
One Web
Mission
Operational Commercial Communications
Bus & Motor
ARROW, Unknown motor
Mass
148 kg wet, ~140 kg dry
Launch date (UTC)
2020-12-18 (5 years ago)
Launch vehicle
SOYUZ-2-1B
Launch site
Vostochny Cosmodrome (VOSTO)
Object type
Payload
Rocket body
Debris
Shape & HBR
Trap Box + 2 Pan, 6.7 m
Radar Cross Section
3.464 m², Large (>1 m²)

Expand to show TLE details & history
Last TLE update: 7 hours ago

TLE from 7 hours ago
0 ONEWEB-0132
1 47278U 20100W   26095.25630829  .00000087  00000-0  20724-3 0  9991
2 47278  87.9008   5.1593 0001829  80.5487 279.5848 13.12445839255013
Epoch: 2026-04-05T06:09Z
TLE epoch observation values (Epoch: 2026-04-05T06:09:05.036Z)
Latitude
-0.00003°
Longitude
79.32397°
Altitude
1,216.372 km
Speed
7.246 km/s
True Right ascension
00h 20m 38s
True Declination
0° 00' 00"
Sunlit
Object was in daylight at epoch
Visualization orbit readout
Latitude
Unknown
Longitude
Unknown
Altitude
Unknown
Speed
Unknown
Apparent Right ascension
Unknown
Apparent Declination
Unknown
Sunlit
N/A
Visualization observer readout
Local Sidereal Time
19:00:30
Azimuth
Unknown
Elevation
Unknown
Doppler factor
Unknown
Orbital elements
Apogee altitude
1,212.217 km
Perigee altitude
1,209.441 km
Semi-major axis
7,588.966 km
Eccentricity
0.00018
Inclination
87.9008°
RAAN
5.1593°
Arg. of periapsis
80.5487°
True anomaly
279.56413°
Mean anomaly
279.5848°
Eccentric anomaly
279.57447°
Mean motion
3.28299 °/min
Orbital period
109.66 mins
BSTAR
0.00020724
Loading maneuver chart data...
Computing Atmospheric mass density...
Loading historical data...
Loading historical data...
Loading historical data...
Loading historical data...
Loading historical data...
Loading historical data...
Loading historical data...

Documentation

Showing up to 5 results
|